#timestamp,LO_Frequency,Hit,StdDev 
1606885215.7,286047001.0,N
1606885235.5,286047000.7,N
1606885255.4,286047000.7,N
1606885275.2,286047000.6,N
1606885295.0,286047001.1,N
1606885295.9,286047001.1,N
1606885315.8,286047000.2,N
1606885335.6,286047002.8,N
1606885355.4,286047002.4,N
1606885375.3,286047001.0,N
1606885395.1,286047000.3,N
1606885415.8,286047000.5,N
1606885435.7,286047000.8,N
1606885455.5,286047000.7,N
1606885475.3,286047000.8,N
1606885495.2,286047002.7,N
1606885515.9,286047000.0,N
1606885535.7,286047000.0,N
1606885555.6,286047000.0,N
1606885575.4,286047000.3,N
1606885595.2,286047000.9,N
1606885615.1,286047001.1,N
1606885616.0,286047001.1,N
1606885635.8,286046998.1,N
1606885655.6,286047000.1,N
1606885675.5,286047002.6,N
1606885695.3,286047002.8,N
1606885715.1,286046999.8,N
1606885735.9,286047002.4,N
1606885755.7,286047000.0,N
1606885775.5,286047000.6,N
1606885795.4,286047000.8,N
1606885815.2,286047001.0,N
1606885835.0,286047000.6,N
1606885835.9,286047000.6,N
1606885855.8,286047001.0,N
1606885875.6,286047000.3,N
1606885895.4,286047000.5,N
1606885915.3,286047000.7,N
1606885935.1,286046998.4,N
1606885936.0,286046998.4,N
1606885955.8,286046999.0,N
1606885975.7,286046998.9,N
1606885995.5,286046998.7,N
1606886015.3,286047001.0,N
1606886035.2,286046998.1,N
1606886055.9,286046998.6,N
1606886075.7,286046998.9,N
1606886095.6,286046998.3,N
1606886115.4,286046998.4,N
1606886135.2,286046999.3,N
1606886155.1,286046999.5,N
1606886156.0,286046999.5,N
1606886175.8,286046999.4,N
1606886195.6,286046998.2,N
1606886215.5,286046998.6,N
1606886235.3,286046999.4,N
1606886255.1,286046996.5,Y
1606886275.9,286046998.2,P
1606886295.7,286046998.9,N
1606886315.5,286046999.3,N
1606886335.4,286046997.0,Y
1606886355.2,286046999.3,P
1606886375.0,286046998.1,P
1606886375.9,286046998.1,P
1606886395.8,286046999.0,N
1606886415.6,286047000.8,N
1606886435.4,286047000.7,N
1606886455.3,286047001.2,N
1606886475.1,286047000.8,N
1606886476.0,286047000.8,N
1606886495.8,286047000.1,N
1606886515.7,286047000.8,N
1606886535.5,286046998.5,N
1606886555.3,286046998.3,N
1606886575.2,286046999.8,N
1606886595.9,286047002.8,N
1606886615.7,286047002.7,N
1606886635.6,286047002.7,N
1606886655.4,286047000.9,N
1606886675.2,286047000.1,N
1606886695.1,286047001.9,N
1606886696.0,286047001.9,N
1606886715.8,286047002.0,N
1606886735.6,286047002.6,N
1606886755.5,286047000.1,N
1606886775.3,286047000.0,N
1606886795.1,286047000.6,N
1606886815.9,286047000.9,N
1606886835.7,286047000.5,N
1606886855.5,286047002.5,N
1606886875.4,286047002.7,N
1606886895.2,286047001.7,N
1606886915.0,286047003.8,N
1606886915.9,286047003.8,N
1606886935.8,286047003.8,N
1606886955.6,286047003.6,N
1606886975.4,286047005.6,Y
1606886995.3,286047001.4,P
1606887015.1,286047002.6,P
1606887016.0,286047002.6,P
1606887035.8,286047002.3,Y
1606887055.7,286047002.8,P
1606887075.5,286047002.6,P
1606887095.3,286047004.4,P
1606887115.2,286047003.7,Y
1606887135.9,286047000.9,P
1606887155.7,286047000.4,N
1606887175.6,286047000.7,N
1606887195.4,286047002.8,N
1606887215.2,286046999.8,N
1606887235.1,286047000.0,N
1606887236.0,286047000.0,N
1606887255.8,286046999.9,N
1606887275.6,286047002.2,N
1606887295.5,286047001.3,N
1606887315.3,286047004.4,Y
1606887335.1,286047001.9,P
1606887355.9,286047004.3,P
1606887375.7,286047003.5,N
1606887395.5,286047001.3,N
1606887415.4,286047005.5,Y
1606887435.2,286047005.6,P
1606887455.0,286047005.7,P
1606887455.9,286047005.7,P
1606887475.8,286047006.0,Y
1606887495.6,286047000.7,P
1606887515.4,286047002.8,N
1606887535.3,286046999.8,N
1606887555.1,286047002.5,N
1606887575.8,286047001.7,N
1606887595.7,286047004.1,N
1606887615.5,286047003.0,N
1606887635.3,286047005.4,Y
1606887655.2,286047002.0,P
1606887675.0,286047002.7,P
1606887675.9,286047002.7,P
1606887695.7,286047001.5,Y
1606887715.6,286047000.2,P
1606887735.4,286047000.0,N
1606887755.2,286047001.3,N
1606887775.1,286047001.3,N
1606887776.0,286047001.3,N
1606887795.8,286047003.5,Y
1606887815.6,286047005.4,P
1606887835.5,286047003.4,N
1606887855.3,286047003.7,N
1606887875.1,286047004.5,N
1606887895.9,286047007.0,Y
1606887915.7,286047005.7,P
1606887935.5,286047005.8,P
1606887955.4,286047003.0,N
1606887975.2,286047006.0,Y
1606887995.1,286047000.2,P
1606887996.0,286047000.2,N
1606888015.8,286047000.3,N
1606888035.6,286047000.3,N
1606888055.5,286047001.5,N
1606888075.3,286047002.2,N
1606888095.1,286046999.9,N
1606888115.9,286047000.8,N
1606888135.7,286047001.9,N
1606888155.5,286047003.5,N
1606888175.4,286047005.8,Y
1606888195.2,286047004.8,P
1606888215.0,286047005.0,N
1606888215.9,286047005.0,P
1606888235.8,286047006.8,Y
1606888255.6,286047003.6,P
1606888275.4,286047003.5,P
1606888295.3,286047003.0,P
1606888315.1,286047005.1,Y
1606888316.0,286047005.1,P
1606888335.8,286047004.2,P
1606888355.7,286047001.3,N
1606888375.5,286047003.2,N
1606888395.3,286047006.0,Y
1606888415.2,286047002.8,P
1606888435.9,286047002.2,P
1606888455.7,286047001.6,P
1606888475.6,286047002.4,Y
1606888495.4,286046999.6,P
1606888515.2,286046999.0,N
1606888535.1,286047001.0,N
1606888536.0,286047001.0,N
1606888555.8,286047000.8,N
1606888575.6,286046999.9,N
1606888595.5,286047001.6,N
1606888615.3,286047001.7,N
1606888635.1,286047003.9,Y
1606888655.9,286047004.4,P
1606888675.7,286047004.4,N
1606888695.5,286047003.4,N
1606888715.4,286047003.5,N
1606888735.2,286047004.9,Y
1606888755.0,286047004.1,P
1606888755.9,286047004.1,P
1606888775.8,286047001.4,P
1606888795.6,286047003.2,N
